Flag for Netherlands Weather past 2 weeks in Almere, Netherlands

Now
63 °F

Passing clouds.


Feels Like: 63 °F
Forecast: 53 / 66 °F
Wind: 17 mph from Southwest

Location: Amsterdam Schiphol Airport

Current Time: May 4, 2015 at 1:01:54 PM

Latest Report: May 4, 2015 at 12:25 PM


Visibility: N/A

Pressure: 29.74 "Hg

Humidity: 59%

Dew point: 48 °F

Location of AlmereLocation

Historic Weather in Almere — Graph

°F

Almere temperature yesterday

Maximum temperature yesterday: 63 °F (at 6:55 PM)
Minimum temperature yesterday: 46 °F (at 3:55 AM)
Average temperature yesterday: 54 °F

Past Weeks' High & Low Weather Summary

 TemperatureHumidityPressure
High64 °F (Apr 24, 2:55 PM)100% (Apr 21, 4:55 AM)30.51 "Hg (Apr 21, 4:55 AM)
Low34 °F (Apr 28, 3:25 AM)33% (May 2, 3:55 PM)29.47 "Hg (May 3, 4:55 PM)
Average50 °F74%29.97 "Hg
* Reported Apr 19 11:25 AM — May 4 11:55 AM, Almere, Weather by CustomWeather, © 2015

Note: Actual official high and low records may vary slightly from our data, if they occured in-between our weather recording intervals... More about our weather records

Advertising

Almere weather history for previous 24 hours

 ConditionsComfort  
Time TempWeatherWind HumidityBarometerVisibility
11:55 AM
Mon, May 4
61 °FPassing clouds.18 mph68%29.74 "HgN/A
11:25 AM59 °FScattered clouds.17 mph68%29.74 "HgN/A
10:55 AM59 °FScattered clouds.21 mph72%29.71 "HgN/A
10:25 AM59 °FBroken clouds.17 mph72%29.71 "HgN/A
9:55 AM59 °FPartly sunny.18 mph77%29.71 "HgN/A
9:25 AM57 °FPartly sunny.15 mph77%29.71 "HgN/A
8:55 AM57 °FPartly sunny.15 mph77%29.68 "HgN/A
8:25 AM57 °FPartly sunny.15 mph82%29.68 "HgN/A
7:55 AM55 °FPartly sunny.17 mph88%29.68 "HgN/A
7:25 AM55 °FPassing clouds.15 mph88%29.65 "HgN/A
6:55 AM54 °FPassing clouds.13 mph88%29.65 "HgN/A
6:25 AM54 °FPassing clouds.16 mph88%29.62 "HgN/A
5:55 AM54 °FPassing clouds.15 mph88%29.62 "HgN/A
5:25 AM54 °FPassing clouds.17 mph88%29.62 "HgN/A
4:55 AM54 °FPassing clouds.18 mph88%29.62 "HgN/A
4:25 AM54 °FPassing clouds.17 mph88%29.62 "HgN/A
3:55 AM54 °FClear.14 mph88%29.62 "Hg10 mi
3:25 AM54 °FClear.14 mph88%29.62 "Hg10 mi
2:55 AM54 °FClear.15 mph82%29.62 "Hg10 mi
2:25 AM54 °FClear.15 mph82%29.62 "Hg10 mi
1:55 AM54 °FPassing clouds.18 mph82%29.62 "HgN/A
1:25 AM54 °FPassing clouds.16 mph82%29.59 "HgN/A
12:55 AM54 °FClear.16 mph82%29.59 "Hg10 mi
12:25 AM54 °FClear.13 mph88%29.59 "Hg10 mi
11:55 PM
Sun, May 3
54 °FClear.14 mph88%29.59 "Hg10 mi
11:25 PM55 °FClear.16 mph82%29.56 "Hg10 mi
10:55 PM55 °FClear.17 mph88%29.56 "Hg10 mi
10:25 PM55 °FClear.17 mph88%29.56 "Hg10 mi
9:55 PM55 °FPassing clouds.15 mph88%29.53 "HgN/A
9:25 PM57 °FSunny.15 mph82%29.53 "Hg10 mi
8:55 PM57 °FPassing clouds.10 mph82%29.50 "HgN/A
8:25 PM57 °FPassing clouds.15 mph88%29.50 "HgN/A
7:55 PM59 °FPassing clouds.18 mph88%29.50 "HgN/A
7:25 PM61 °FPassing clouds.21 mph83%29.50 "HgN/A
6:55 PM63 °FScattered clouds.20 mph83%29.47 "HgN/A
6:25 PM61 °FBroken clouds.16 mph94%29.47 "HgN/A
5:55 PM61 °FDrizzle. Broken clouds.15 mph94%29.47 "Hg4 mi
5:25 PM61 °FBroken clouds.15 mph94%29.47 "HgN/A
4:55 PM59 °FDrizzle. Broken clouds.15 mph100%29.47 "Hg4 mi
4:25 PM59 °FDrizzle. Broken clouds.15 mph100%29.50 "Hg3 mi
3:55 PM59 °FDrizzle. Broken clouds.15 mph100%29.50 "Hg3 mi
3:25 PM59 °FDrizzle. Broken clouds.16 mph94%29.50 "Hg3 mi
2:55 PM57 °FDrizzle. Partly sunny.15 mph100%29.50 "Hg2 mi
2:25 PM57 °FDrizzle. Broken clouds.15 mph94%29.53 "Hg2 mi
1:55 PM59 °FDrizzle. Mostly cloudy.15 mph82%29.53 "Hg4 mi
1:25 PM59 °FDrizzle. Mostly cloudy.17 mph82%29.53 "Hg4 mi
Weather by CustomWeather, © 2015

See weather overviewHow to use our weather pages